GFSSGP_500_spd_159.txt.gz
Wind_Speed
3 2 4 5 2 4 2 8 7 5 6 7 7 6 7 8 4 5 7 9 11 14 13 14 16 14 11 8 10 4 2 18 19 16 14 12 9 6 4 3 3 2 2 3 6 7 4 4 7
1 2 0 2 4 1 2 1 7 5 6 8 7 6 8 9 9 7 7 9 11 13 11 16 17 14 11 9 8 4 3 18 21 19 19 15 9 7 6 6 3 2 4 6 7 2 4 7 6
8 5 4 3 1 4 1 3 2 5 6 8 9 8 6 10 4 4 9 11 9 12 11 15 16 13 10 10 11 8 8 20 22 21 16 13 10 7 5 5 4 1 3 6 1 4 9 10 9
13 11 9 7 6 6 3 4 2 4 6 7 9 9 10 12 9 7 13 13 10 11 11 16 15 13 10 10 12 12 15 18 19 13 13 14 11 9 7 6 3 1 4 1 6 7 11 11 11
12 13 7 8 10 7 8 6 3 4 5 6 10 9 13 13 9 8 11 13 10 10 10 12 16 17 15 15 14 14 16 17 13 13 12 13 11 12 9 7 3 2 2 6 6 8 10 10 11
13 12 6 14 16 10 9 9 3 5 5 8 10 9 14 13 8 7 9 12 10 9 12 11 14 19 9 10 13 15 12 12 8 9 11 9 10 10 7 6 3 1 4 6 6 7 8 11 13
9 13 9 12 11 13 13 18 6 6 5 8 9 6 10 13 8 6 9 11 10 8 8 8 16 18 13 10 11 12 8 9 9 5 4 9 5 8 6 5 2 4 6 5 6 7 12 13 17
11 16 9 8 7 10 20 15 10 7 4 7 11 8 10 14 11 8 8 7 10 8 7 9 11 14 14 15 15 13 10 10 10 8 4 4 5 3 3 3 4 4 4 5 8 9 15 18 17
12 11 7 2 7 12 24 19 12 11 4 6 10 9 12 14 10 4 5 7 8 8 9 7 10 13 13 13 13 12 12 12 11 11 10 8 6 5 3 5 6 5 7 9 10 14 19 17 15
8 8 7 6 4 6 20 15 17 7 6 7 10 11 12 13 10 7 4 4 7 9 8 9 8 9 11 11 11 11 11 11 11 11 11 10 8 6 7 10 8 8 10 12 16 20 17 15 14
6 4 4 6 10 9 28 14 13 10 7 8 8 10 13 13 10 7 3 7 3 8 9 11 10 8 10 11 10 11 10 9 9 11 12 11 10 10 12 12 12 10 14 16 21 18 15 14 15
6 4 3 6 2 5 12 7 5 7 8 10 10 7 12 15 10 8 5 4 1 11 11 11 10 9 8 10 10 10 10 9 8 12 14 14 13 14 13 11 10 13 18 21 20 17 15 14 13
3 4 5 6 10 10 11 6 8 7 10 10 11 10 11 13 11 8 6 4 2 13 15 13 11 10 9 9 9 9 9 9 9 10 12 12 12 11 11 11 14 18 21 21 18 17 13 12 15
8 3 4 9 9 11 10 8 13 10 13 11 12 10 11 12 12 8 6 6 8 15 15 13 11 11 10 9 9 9 12 7 10 13 12 10 10 11 10 12 16 19 21 19 17 15 12 12 12
9 5 5 7 9 8 8 6 9 8 14 10 14 11 8 9 10 8 8 7 6 11 13 11 11 11 12 13 6 9 10 11 12 15 13 11 11 12 10 14 17 19 18 17 15 12 10 9 13
7 4 8 7 8 9 10 7 6 7 7 13 10 10 8 8 9 8 10 9 5 8 11 9 12 12 11 9 7 9 9 11 13 15 14 11 10 12 13 15 16 18 16 15 12 10 8 10 14
9 11 13 8 5 6 5 6 5 6 10 14 6 9 9 7 7 7 6 11 8 9 12 12 12 12 12 10 8 7 10 14 15 16 16 10 12 13 16 16 14 17 15 12 10 8 7 8 10
8 11 12 5 4 2 3 5 6 6 10 14 11 10 10 8 6 5 7 11 11 12 11 13 10 15 13 9 8 7 11 17 17 19 16 13 13 13 16 17 15 16 14 12 9 7 5 5 10
9 11 12 8 11 7 4 2 2 7 12 12 10 8 9 8 9 11 10 11 13 13 11 9 9 10 8 8 8 7 16 18 18 19 18 17 13 13 17 17 17 18 16 13 9 5 3 12 12
7 10 10 9 8 9 6 4 3 4 15 15 15 11 9 8 12 11 13 14 15 15 15 12 10 10 11 9 10 11 14 16 17 16 21 19 14 13 16 19 18 17 15 13 10 6 3 6 6
8 6 7 10 11 9 9 8 6 4 11 14 18 12 12 12 9 10 12 14 16 15 16 15 13 9 12 13 12 12 11 12 18 16 20 21 14 14 16 19 18 17 15 14 12 10 5 4 3
7 5 8 8 10 9 8 5 7 5 5 13 18 23 18 17 13 12 10 11 15 16 16 15 14 12 11 11 11 12 10 13 13 15 17 21 16 14 16 18 18 17 16 14 13 11 9 5 3
3 3 10 12 12 13 12 10 9 7 5 5 15 18 15 17 16 13 10 12 12 14 16 16 15 12 11 11 11 11 13 16 16 17 16 19 15 15 16 17 17 16 16 16 15 13 10 6 2
5 6 8 9 9 10 13 15 16 11 8 5 5 13 16 15 16 12 13 12 12 12 13 15 15 16 13 12 10 12 16 17 18 21 20 17 19 19 17 18 16 16 16 15 14 12 11 6 4
13 12 9 7 6 7 9 11 15 17 17 12 11 12 13 20 19 15 11 15 18 16 14 15 16 17 16 13 12 12 14 16 17 18 20 19 21 20 18 20 15 16 18 17 15 12 10 9 6
11 13 13 10 7 7 5 7 10 11 10 11 12 14 16 17 26 22 16 17 17 18 15 17 18 19 18 17 16 13 14 13 14 17 20 21 23 22 19 21 19 16 18 19 18 16 11 10 8
8 11 12 9 8 8 5 6 10 11 10 6 9 13 15 10 29 27 23 17 18 16 19 20 19 20 20 19 19 18 16 15 15 16 17 18 19 21 22 21 21 20 19 19 18 16 16 13 11
10 8 9 9 8 8 6 6 9 10 10 8 7 9 16 16 14 25 22 26 25 24 23 21 21 21 21 21 20 20 19 18 17 16 15 15 16 17 18 18 18 19 17 17 18 18 16 12 11
8 4 4 8 9 7 7 7 5 9 10 10 11 9 11 16 20 19 21 23 28 29 26 23 21 21 24 23 21 22 22 21 19 20 17 15 14 15 14 13 12 12 12 14 14 15 14 14 14
15 13 11 9 6 4 4 7 6 7 7 10 10 11 13 13 16 17 20 19 20 28 29 23 24 21 23 24 24 25 22 23 21 21 19 16 15 14 13 12 11 12 12 12 12 11 12 11 12

GFSSGP_500_spd_162.txt.gz
Wind_Speed
4 5 6 4 6 7 6 7 4 3 2 2 5 6 6 4 3 3 6 10 12 16 16 16 18 14 13 11 11 8 3 13 18 15 12 11 8 6 5 6 6 4 4 3 8 11 6 7 6
3 5 5 3 6 6 0 1 7 4 2 2 3 5 7 8 4 2 5 7 10 15 16 18 18 14 12 10 11 7 6 13 20 17 14 12 9 5 4 5 6 4 2 7 9 8 9 6 4
6 3 3 3 4 6 4 4 2 4 2 3 5 6 8 8 3 4 6 8 12 14 17 19 17 14 12 10 12 8 9 13 20 16 13 12 7 3 5 4 3 2 5 9 8 10 7 6 5
6 3 1 4 6 9 7 5 4 4 3 2 5 8 10 9 8 7 11 12 11 16 13 19 17 15 12 12 11 9 8 16 19 16 15 14 8 7 6 5 3 3 8 10 9 7 7 10 15
10 8 3 8 10 12 9 7 4 3 4 4 5 6 11 12 9 8 11 12 11 10 12 18 17 15 13 12 13 10 10 18 19 18 16 14 11 10 10 7 3 7 11 10 9 10 13 17 18
11 9 10 13 15 12 10 7 5 3 5 5 5 5 7 11 10 8 9 11 11 9 9 16 19 17 17 13 13 13 14 20 16 14 13 13 11 9 11 6 6 12 13 10 12 15 18 20 15
11 7 9 17 15 11 11 9 8 5 6 3 5 3 4 10 11 8 9 9 9 6 5 13 17 14 9 8 13 14 17 14 12 11 11 11 12 13 10 8 13 15 13 15 15 20 21 16 12
9 11 11 9 12 11 18 13 9 5 6 3 6 2 4 12 12 10 8 7 8 6 7 14 16 11 10 8 12 19 17 16 14 11 9 15 18 12 10 15 15 14 16 18 20 21 18 13 13
8 7 4 3 7 14 23 18 11 7 8 3 7 6 7 11 12 9 5 7 6 6 5 7 12 14 11 12 10 13 14 13 13 10 7 13 15 13 16 17 15 17 19 22 22 20 16 15 14
6 5 4 7 5 14 20 20 14 7 6 4 7 7 10 10 11 10 7 7 6 7 6 6 10 7 9 8 6 11 10 10 10 9 7 8 10 16 19 17 17 19 23 24 22 18 16 15 14
5 4 5 2 3 5 13 20 14 9 6 6 6 8 11 11 9 7 5 7 6 5 6 8 9 9 10 11 10 11 9 9 8 8 7 7 12 18 17 18 19 23 25 24 20 18 16 15 15
4 4 6 5 3 13 17 23 12 11 9 8 8 8 11 11 9 7 8 4 2 9 8 7 8 8 9 10 11 9 10 10 8 8 9 12 16 17 17 17 21 24 25 22 20 18 15 14 12
1 5 7 7 9 15 13 15 13 13 10 9 10 9 10 11 8 8 5 1 3 12 11 9 10 11 10 9 9 9 9 11 11 13 14 16 16 17 14 16 23 25 25 22 19 15 15 12 16
3 4 5 8 10 11 9 11 14 14 11 10 11 10 11 11 9 7 5 4 2 16 13 10 9 10 11 12 10 9 9 10 12 13 13 14 15 15 16 21 25 27 23 21 18 15 12 13 14
4 5 3 4 7 8 5 6 10 15 11 12 12 9 10 10 9 7 5 5 8 12 11 9 8 9 13 13 11 11 11 12 13 13 13 13 15 15 19 23 25 23 21 19 16 13 12 10 11
6 5 4 4 7 8 7 2 6 18 18 15 13 10 9 10 10 5 6 6 8 11 10 8 8 10 15 11 9 11 11 13 15 16 15 15 15 16 19 23 24 21 18 16 14 11 10 8 11
7 6 8 5 5 5 5 4 2 11 14 17 14 13 11 10 10 7 4 5 9 11 11 8 9 10 9 9 9 11 11 12 15 17 15 15 15 16 19 21 22 19 16 14 13 11 7 7 9
12 13 10 6 4 3 3 6 6 7 13 15 12 13 12 12 10 9 6 6 10 11 8 14 10 11 10 8 8 9 11 15 18 19 15 16 15 16 17 19 21 17 14 12 11 8 6 4 9
14 16 12 11 8 7 5 5 9 8 10 11 13 13 13 11 11 10 10 10 12 13 12 11 9 11 7 6 7 8 14 17 19 19 16 17 16 16 16 16 18 16 13 10 9 6 6 7 10
12 12 14 13 11 10 10 7 4 5 13 15 18 13 11 10 10 12 13 13 14 14 13 12 11 10 8 8 7 10 16 17 18 19 19 17 16 16 17 16 16 16 14 11 9 8 4 6 8
7 8 10 12 12 10 9 7 6 6 8 17 18 19 9 13 13 12 12 13 13 14 13 12 12 10 9 8 9 9 9 16 15 20 21 18 16 16 17 16 15 15 14 12 9 6 3 3 3
7 11 8 8 6 7 9 2 8 7 7 15 19 20 18 17 15 12 12 14 14 15 14 14 12 10 9 9 10 10 12 15 14 17 23 20 16 17 17 18 17 14 13 11 9 8 5 2 1
12 12 12 10 9 9 12 2 14 8 8 9 9 21 17 20 18 17 15 15 14 16 15 15 13 11 11 10 10 10 10 16 19 17 20 21 17 17 17 20 20 18 15 13 12 10 8 7 3
6 7 8 11 7 2 19 12 15 11 10 8 8 5 15 18 17 15 13 13 15 15 17 18 16 13 11 12 11 11 12 14 16 19 21 20 18 18 18 20 21 20 19 16 15 12 11 7 4
5 4 3 3 6 6 17 6 16 12 13 13 11 8 13 17 18 14 14 14 16 18 18 19 18 16 13 12 13 13 14 15 17 20 21 20 21 20 19 18 19 19 19 19 17 15 13 10 7
5 10 9 9 9 8 11 4 13 12 9 9 8 9 11 9 19 20 16 16 18 19 18 17 19 19 17 15 14 14 15 18 17 19 22 20 19 22 21 21 20 18 18 20 19 17 15 11 10
11 5 13 9 11 6 10 10 11 13 11 4 4 7 8 10 11 21 22 20 18 19 19 18 18 19 19 18 15 16 17 18 18 20 21 22 22 21 21 22 23 19 19 20 18 16 15 12 10
6 9 5 5 7 3 9 8 7 10 11 9 4 5 6 10 11 13 26 24 20 20 23 23 22 20 21 19 18 15 16 19 20 19 19 21 21 22 24 22 20 20 18 16 18 17 17 15 13
7 3 5 12 12 7 4 7 10 11 11 10 10 9 8 8 8 12 14 26 29 25 24 23 24 23 22 21 21 19 18 18 21 21 18 17 17 20 21 20 20 19 18 19 20 20 19 18 18
15 12 10 4 11 8 14 9 9 8 12 12 13 13 13 13 11 13 15 17 18 18 23 28 28 25 25 24 22 23 20 19 20 21 19 17 18 18 17 16 16 16 15 15 17 17 16 17 18

GFSSGP_500_spd_165.txt.gz
Wind_Speed
8 6 6 5 10 3 6 3 3 4 5 3 3 3 4 4 5 6 10 13 16 18 17 15 16 13 14 11 11 7 4 10 14 13 11 7 4 3 2 4 6 6 8 6 9 9 8 8 10
7 6 6 7 8 10 3 3 5 2 3 3 3 1 2 3 3 4 7 10 14 17 17 16 17 14 13 12 11 6 5 8 16 15 10 7 5 3 2 2 10 8 3 7 9 10 10 10 11
6 4 5 7 3 7 7 5 4 3 2 3 3 3 4 4 2 1 5 7 10 14 18 16 17 15 13 11 13 11 10 7 15 13 11 9 7 3 5 7 7 6 6 8 12 11 12 12 15
6 3 5 9 10 10 9 6 2 2 2 2 3 3 4 4 4 2 5 6 11 13 15 16 17 15 13 11 12 10 10 11 12 17 13 10 8 8 7 7 5 6 10 12 11 12 16 15 15
6 5 8 8 10 11 8 7 2 1 1 3 3 4 6 8 7 5 8 8 11 14 13 19 17 15 14 13 11 10 9 12 14 18 15 12 10 8 9 7 7 10 13 12 13 18 17 16 11
8 3 11 15 11 12 10 6 2 1 3 3 2 3 6 7 8 7 7 10 9 10 13 16 19 18 17 12 11 9 7 13 19 18 16 13 10 15 14 10 12 13 13 14 18 19 17 14 13
8 3 9 16 14 14 12 7 5 4 3 4 3 2 4 4 8 6 7 7 8 6 6 15 19 17 18 14 15 14 13 16 23 14 15 12 11 11 12 16 17 16 17 19 19 18 17 16 14
9 6 8 15 19 17 13 10 8 5 3 4 4 2 4 5 10 7 4 6 5 5 2 14 14 18 10 11 23 19 17 18 13 11 11 13 16 15 17 19 19 20 21 22 20 19 17 14 14
6 7 1 3 6 15 17 18 7 4 4 4 3 3 4 8 11 9 3 4 5 6 6 6 9 10 11 11 13 19 16 14 14 10 17 14 15 18 21 21 22 22 23 23 20 19 17 16 14
3 4 3 4 11 17 20 20 9 5 4 3 2 3 5 8 10 10 6 4 4 5 6 5 3 4 9 8 7 16 15 16 16 15 17 19 17 22 22 24 24 25 24 22 21 19 16 17 18
4 3 5 6 6 10 22 25 10 8 6 4 2 3 5 6 9 9 6 5 4 4 5 5 5 6 3 8 6 7 9 9 9 10 14 17 22 22 23 24 25 26 25 22 21 17 16 13 19
7 4 6 5 9 7 15 22 16 10 7 7 5 5 5 5 6 7 9 6 3 6 6 5 6 5 5 7 8 8 10 11 10 13 17 21 22 22 21 24 27 27 25 22 18 16 14 15 19
3 4 7 6 7 12 20 19 15 14 11 11 8 7 6 5 6 9 8 2 4 8 10 8 7 8 8 7 8 8 11 14 16 18 21 21 21 20 21 24 27 27 25 22 17 14 12 15 18
4 2 4 3 5 6 21 17 15 11 12 12 10 9 7 6 6 7 5 1 5 12 12 10 7 8 9 9 10 9 10 14 17 19 18 19 17 17 22 25 27 25 22 19 15 12 10 13 15
3 2 1 1 3 4 6 16 19 16 11 12 12 11 9 6 6 6 3 5 8 14 9 8 6 7 8 9 8 9 10 13 17 17 16 16 15 18 25 26 25 23 21 16 13 10 9 12 13
3 5 4 4 3 4 4 6 16 17 14 13 13 11 9 6 4 6 4 7 9 10 8 7 5 7 10 8 8 11 9 13 16 16 17 17 16 20 24 25 22 20 18 13 10 10 9 10 11
4 5 8 5 6 4 3 6 4 16 15 15 14 13 10 7 5 4 4 5 11 11 8 7 8 10 11 6 7 11 13 14 17 17 17 17 18 22 25 24 21 19 15 11 9 9 8 6 9
14 7 9 2 7 1 7 10 3 7 19 19 14 12 10 9 6 4 5 5 10 11 9 8 9 10 8 7 6 11 12 15 19 18 17 18 19 22 25 23 20 17 14 10 8 7 4 5 6
3 7 10 14 9 2 7 10 9 8 9 15 9 11 10 9 8 6 6 7 9 10 11 11 8 7 6 5 6 8 11 16 20 18 16 19 19 20 22 21 17 15 12 9 6 6 6 5 8
8 7 12 16 15 6 12 12 11 8 7 11 15 12 13 11 15 12 9 9 10 10 11 9 7 8 5 4 3 4 12 17 20 17 16 18 18 19 20 19 16 14 12 9 5 5 3 4 8
3 6 12 10 8 13 6 7 13 11 9 11 15 17 16 18 11 12 9 9 10 10 9 10 9 7 5 4 2 5 9 15 20 18 17 17 17 17 18 18 17 15 11 8 5 3 1 1 5
9 15 16 9 9 15 11 17 12 11 12 9 14 23 18 20 13 9 11 11 10 11 11 11 10 9 6 5 5 6 8 12 17 20 20 18 18 18 18 17 15 14 11 9 6 6 4 2 2
12 21 14 9 7 13 8 7 20 20 13 11 10 18 20 20 17 16 16 11 11 11 11 12 11 10 10 9 8 7 8 11 13 21 23 20 19 18 19 17 15 13 11 10 9 8 7 5 2
13 8 2 3 2 6 16 5 18 6 9 16 8 9 13 23 20 20 16 16 18 15 13 14 13 13 13 11 10 9 9 11 15 15 21 19 18 18 19 19 18 16 14 12 11 11 9 7 5
8 4 8 6 11 11 4 2 20 23 15 20 13 10 9 14 19 23 18 16 16 15 15 15 15 16 15 14 12 12 10 12 14 16 17 18 17 15 16 17 19 18 17 17 16 13 12 11 9
7 12 14 5 12 4 13 3 17 22 22 16 15 8 8 6 11 19 17 17 16 16 14 14 17 17 17 15 14 13 12 15 15 16 18 18 15 14 14 16 16 18 18 17 16 15 14 13 13
10 8 9 8 10 11 10 4 17 14 13 12 8 8 8 8 2 12 19 16 16 19 18 16 16 18 19 17 13 13 13 16 16 15 17 18 16 15 18 17 17 18 15 16 17 17 16 15 14
16 12 6 5 7 4 7 13 18 10 9 11 9 9 7 6 6 7 8 20 20 19 20 18 15 17 20 19 17 15 15 16 17 18 19 18 17 18 18 20 18 19 19 16 17 19 19 17 17
5 9 10 9 15 7 5 9 18 25 17 13 14 12 11 9 10 10 10 12 24 21 22 20 21 19 22 22 22 20 18 17 19 19 18 17 19 18 19 20 20 19 19 19 20 19 18 18 18
17 11 10 2 8 8 13 11 20 19 16 13 14 14 13 14 15 13 14 23 12 17 32 25 23 19 22 24 22 22 20 18 17 20 20 18 16 17 19 21 21 21 20 20 22 21 21 21 20

GFSSGP_500_spd_168.txt.gz
Wind_Speed
7 6 5 5 7 14 13 2 3 2 3 3 3 6 5 7 7 7 12 12 16 15 16 16 15 15 15 15 14 11 9 8 10 11 8 6 3 3 3 4 7 7 10 6 8 11 10 10 9
8 6 5 5 14 22 11 3 8 4 4 5 4 5 5 5 8 8 7 10 14 14 15 15 15 15 14 14 13 10 7 2 9 11 9 7 5 4 2 3 7 6 7 8 10 9 10 9 10
4 4 5 4 17 22 5 2 3 5 4 6 4 4 4 2 3 2 4 8 12 14 17 16 14 16 14 14 14 11 9 10 10 12 11 8 6 5 7 10 7 6 7 9 11 10 8 10 9
3 3 7 5 7 13 9 3 4 5 4 5 3 3 3 5 5 3 2 5 11 14 16 15 15 16 14 13 12 11 11 7 8 13 11 9 6 7 9 12 7 9 12 10 11 11 10 11 12
6 5 8 11 8 2 4 6 6 3 6 3 2 2 3 3 4 1 1 4 9 11 14 16 15 15 15 13 12 10 10 10 9 14 12 8 7 11 15 9 10 14 11 11 12 11 12 14 12
3 6 9 19 15 16 12 5 6 6 5 2 2 1 3 3 3 3 4 4 7 11 10 15 15 15 15 13 11 10 10 10 11 13 15 12 9 11 14 12 15 14 13 14 14 14 14 12 11
5 7 11 15 11 10 14 7 6 8 3 3 1 1 4 4 4 6 4 4 4 7 10 13 16 16 16 16 16 10 8 7 15 16 16 14 8 10 13 15 16 14 16 17 17 14 14 11 8
10 5 6 13 15 15 11 10 6 5 4 5 2 1 4 7 6 3 6 6 3 2 2 12 14 17 17 18 17 17 13 14 15 12 17 12 10 11 16 17 16 18 19 20 18 17 12 9 7
4 7 5 10 14 21 18 14 9 4 3 5 2 2 3 3 5 7 4 5 3 4 9 3 8 13 16 21 28 25 15 12 14 11 12 12 10 14 19 19 18 20 22 19 19 12 10 11 17
19 17 9 10 5 8 8 14 12 8 7 4 3 3 2 4 7 7 6 5 5 5 7 6 5 6 8 10 12 19 8 11 16 11 15 18 20 20 21 21 19 23 22 20 17 9 16 11 17
8 9 8 13 10 8 11 18 16 8 8 1 2 4 2 3 5 6 5 6 5 5 3 5 1 6 13 5 14 20 13 14 19 17 20 18 19 20 21 21 23 24 21 19 14 11 18 13 22
9 4 6 8 13 13 14 19 16 8 5 4 3 4 2 1 3 7 2 4 5 4 5 5 3 10 10 22 16 16 11 11 13 16 15 22 22 21 20 23 26 24 20 18 15 11 15 15 18
6 6 10 10 4 7 12 21 7 10 12 9 6 5 3 2 1 3 5 3 2 6 5 3 3 4 5 11 10 13 17 14 15 18 20 21 21 22 21 23 25 23 20 9 18 10 16 14 10
5 3 7 10 5 2 11 18 18 15 12 8 8 7 5 3 3 4 4 5 5 10 8 4 3 3 5 7 9 11 15 18 20 21 21 21 22 21 24 27 24 25 21 16 10 14 13 11 8
7 7 5 8 8 9 9 15 18 22 10 11 10 8 6 4 3 4 3 5 3 12 10 7 5 5 5 7 8 10 12 15 18 20 21 20 20 23 24 27 19 10 15 15 10 13 11 10 14
4 3 8 7 7 6 8 10 13 11 12 14 11 10 7 3 2 3 1 1 11 11 11 8 6 7 8 7 8 9 11 15 17 18 18 18 21 24 25 26 19 12 10 9 8 10 8 10 12
9 9 9 5 7 7 6 11 11 17 13 14 10 9 7 4 3 3 0 3 7 10 9 10 7 8 9 5 7 13 12 14 14 15 16 17 22 24 24 17 21 15 11 8 9 5 6 9 10
8 5 4 11 4 4 2 14 7 1 8 12 11 10 8 6 5 5 3 4 6 8 7 6 9 10 6 5 5 7 12 14 15 16 17 19 24 26 31 24 19 14 10 8 7 3 6 7 5
12 3 7 11 14 2 10 8 4 6 10 13 20 10 9 9 5 5 6 5 4 5 6 9 8 8 6 4 3 8 10 14 14 15 16 19 24 25 23 20 17 13 12 9 5 6 6 4 9
10 15 10 12 16 13 18 8 7 5 7 7 11 14 19 13 12 6 3 4 6 3 6 7 9 8 5 3 2 5 9 14 16 13 14 18 23 24 22 19 16 13 11 9 8 6 4 6 7
5 11 19 14 13 13 10 14 6 7 8 4 7 12 17 11 11 14 6 6 6 7 6 4 6 6 4 3 4 5 11 17 18 13 14 16 19 21 20 17 14 14 8 6 5 8 1 2 9
4 19 15 21 15 7 16 15 21 15 9 9 5 12 12 10 13 7 8 8 9 8 7 6 6 4 4 4 5 7 14 17 20 17 15 15 16 17 17 16 12 10 6 4 5 3 0 2 6
10 19 19 19 13 11 10 18 15 15 16 7 5 9 18 14 15 15 9 15 11 10 8 8 7 6 6 6 5 6 8 14 17 17 17 15 14 14 14 13 11 12 8 8 4 2 4 3 5
13 7 4 5 2 7 5 10 17 24 32 13 3 3 10 19 14 19 16 21 13 9 11 6 8 9 7 7 8 6 7 6 13 16 17 15 13 12 13 14 13 12 12 9 9 3 8 4 4
12 5 9 3 7 12 12 5 18 26 25 10 14 9 8 9 12 21 17 18 21 14 10 8 8 10 10 10 8 7 6 7 12 11 15 16 15 13 12 13 14 15 13 12 9 9 9 8 7
1 8 25 19 8 4 13 11 19 22 28 27 24 15 11 3 3 19 22 19 19 12 8 7 12 11 12 11 10 11 9 7 7 11 12 16 16 12 11 11 12 14 13 12 12 11 10 9 8
13 7 12 8 14 6 6 9 27 21 24 20 14 16 11 10 3 12 18 17 18 6 7 11 14 12 13 12 11 12 9 10 11 12 15 18 18 14 13 13 11 10 11 11 12 13 12 12 11
14 14 7 7 6 10 13 15 19 21 13 23 16 11 14 8 8 8 13 16 14 13 22 13 16 12 12 13 13 14 12 12 13 13 17 17 17 19 14 13 16 13 13 15 15 16 16 15 15
10 10 15 11 11 11 17 13 12 17 13 21 16 16 11 8 9 11 11 15 14 11 23 18 19 17 14 14 17 16 16 14 14 17 17 16 16 16 20 20 16 15 16 16 17 16 15 15 16
14 7 8 7 9 12 16 7 21 18 21 20 18 13 17 13 10 11 12 15 15 14 23 27 26 25 24 19 18 19 17 16 17 19 18 15 15 19 23 21 11 17 16 18 18 17 19 19 19

GFSSGP_500_spd_171.txt.gz
Wind_Speed
7 6 5 5 13 11 11 6 7 7 6 2 1 3 7 5 3 5 8 11 11 11 15 16 16 15 14 15 14 11 8 8 9 11 7 3 3 3 3 2 3 6 4 3 7 7 6 5 7
6 4 5 8 8 21 19 2 1 7 10 4 4 3 5 6 4 5 9 11 12 14 15 16 16 16 15 14 13 11 9 7 10 10 7 5 4 3 2 4 5 5 5 6 7 6 6 7 7
3 4 8 10 9 14 12 8 8 5 4 1 4 2 6 2 3 2 6 10 12 14 16 16 16 15 15 15 13 12 12 11 9 10 9 6 6 2 2 7 6 6 7 7 6 6 7 7 7
3 5 9 8 8 24 8 5 6 10 5 6 5 1 4 3 5 6 3 8 10 12 14 17 15 14 15 14 14 14 15 9 9 12 9 7 6 5 8 5 4 6 6 6 6 10 8 6 7
2 5 6 10 7 13 16 12 6 10 9 5 5 2 4 5 5 3 1 5 9 10 12 13 13 13 14 13 13 12 13 10 9 11 10 8 8 7 7 7 5 6 6 7 10 10 6 7 6
8 3 5 8 8 6 18 6 8 5 8 5 5 5 4 4 4 3 2 2 5 7 9 11 12 11 12 13 10 10 11 10 11 9 14 13 9 8 10 8 6 7 9 11 11 8 5 6 4
1 6 8 14 14 24 7 2 6 8 3 3 3 5 3 3 3 2 2 4 4 6 8 8 13 13 13 13 11 11 12 10 14 12 16 13 8 7 12 13 11 9 11 12 10 6 5 9 10
1 12 4 8 12 15 10 7 6 9 10 3 7 6 3 1 0 0 4 5 5 3 2 8 12 15 15 15 13 14 11 10 6 7 16 14 8 6 9 12 8 11 14 13 9 6 10 11 7
15 15 11 11 16 16 19 8 8 7 10 9 5 6 4 2 4 4 4 5 5 5 5 2 8 11 17 18 18 18 13 10 10 11 17 11 9 8 12 13 13 16 17 15 9 7 13 12 13
12 16 15 12 13 7 11 11 9 9 10 8 4 5 4 2 2 2 3 3 4 6 8 6 4 3 10 12 19 25 22 14 10 8 11 10 7 12 11 15 17 19 17 17 7 8 17 20 28
8 9 13 15 10 3 5 8 12 15 11 4 3 5 4 4 2 1 3 2 4 5 5 5 7 5 6 6 8 10 12 13 16 14 12 10 14 11 17 20 18 21 15 18 10 7 12 23 27
4 10 14 14 12 3 8 11 15 12 8 3 3 6 6 4 4 1 1 5 0 2 3 6 10 9 7 14 16 22 13 15 20 17 14 18 14 18 20 20 22 22 17 15 15 8 11 13 12
6 7 13 14 13 10 6 15 19 16 10 4 2 5 3 7 4 5 5 3 2 4 4 3 8 7 7 10 12 16 14 17 18 16 18 20 21 21 19 18 21 20 13 12 10 8 7 14 4
0 2 6 10 9 10 3 7 18 12 10 8 6 4 4 3 4 4 0 2 1 7 6 5 5 7 6 8 12 11 10 16 16 18 20 18 17 21 22 22 21 20 14 10 9 10 16 13 13
4 3 5 6 8 9 6 7 23 11 10 4 7 2 6 3 3 2 4 9 1 10 9 8 7 7 5 6 10 11 12 15 16 16 21 20 18 20 22 24 23 18 15 10 9 13 15 14 15
6 1 7 4 4 7 9 11 1 11 11 5 6 2 3 3 5 0 3 5 7 11 8 8 9 10 8 6 5 8 11 14 17 17 19 19 21 21 24 22 20 15 14 7 12 11 15 10 9
4 5 7 2 7 10 9 8 13 7 11 5 7 4 7 3 1 2 0 5 7 7 6 5 5 7 10 6 6 7 11 13 14 16 15 18 17 20 28 22 19 15 12 8 8 8 12 15 12
8 5 10 7 6 7 4 7 5 6 4 13 10 8 8 5 8 6 4 7 8 6 5 4 4 8 9 9 8 7 8 12 12 13 13 14 17 22 21 22 17 15 10 6 5 4 9 12 11
5 7 14 8 3 7 11 10 7 2 4 4 9 13 12 9 8 2 5 4 6 7 4 5 8 8 3 4 7 9 12 12 12 14 14 16 19 25 14 15 12 11 10 6 2 2 12 11 9
1 8 10 9 11 11 10 13 8 4 5 5 5 7 12 12 9 7 8 6 7 8 8 7 5 8 7 5 7 10 13 15 16 16 13 16 20 21 16 12 10 6 6 2 5 9 7 4 10
5 10 9 21 16 19 14 12 8 9 12 6 3 9 11 10 11 18 12 5 10 10 10 8 7 4 3 4 5 7 12 14 18 18 16 16 17 19 16 14 11 8 5 2 3 5 4 10 6
7 10 13 13 21 13 13 11 13 18 9 15 11 8 11 8 12 20 12 9 11 13 11 8 8 7 4 3 7 4 7 11 15 16 17 16 16 16 14 10 9 7 6 4 1 5 7 7 9
13 15 13 12 20 16 10 15 9 18 10 17 19 13 9 9 4 6 17 11 14 9 8 10 7 6 6 3 3 3 6 7 12 13 14 15 17 16 15 11 12 9 8 4 2 4 8 8 11
10 11 9 9 16 9 7 16 10 16 19 18 8 7 9 9 7 8 11 19 15 12 10 8 6 5 3 4 1 4 5 6 14 14 13 14 17 17 15 13 13 12 9 6 6 3 5 6 7
19 14 10 7 10 14 11 10 13 11 16 14 14 18 13 9 10 10 13 14 16 18 12 9 6 6 4 4 3 1 1 2 8 13 17 16 15 15 14 13 13 14 11 9 6 5 5 7 7
1 10 8 12 15 6 10 15 11 15 14 9 7 4 9 11 7 12 16 20 2 16 13 16 10 10 7 6 6 7 5 6 10 13 17 17 14 11 10 9 8 9 11 10 7 5 5 6 7
8 8 7 5 10 18 6 7 13 18 16 16 16 8 8 10 6 6 12 10 10 8 16 12 11 14 14 11 8 8 8 8 9 11 14 17 13 14 11 5 4 5 6 7 6 6 5 5 7
12 17 12 7 11 15 18 8 12 21 23 21 22 16 16 14 8 2 7 12 16 8 15 12 11 17 13 12 12 11 10 10 11 11 10 10 12 11 10 9 7 9 10 9 8 8 7 8 7
17 13 13 9 7 17 20 7 21 12 17 23 22 16 11 3 8 5 2 7 16 17 16 12 18 19 16 15 14 14 12 10 11 13 13 11 14 14 11 13 11 14 17 15 13 10 10 9 8
8 12 3 10 5 17 18 16 10 5 14 21 22 15 6 5 4 6 10 11 13 14 14 7 23 25 16 14 15 18 16 14 15 16 16 15 14 14 19 11 14 17 15 16 13 11 12 11 11